{"data":{"norad_id":56407,"epoch":"2026-09-19T23:00:04.687776Z","epoch_age_seconds":158768,"freshness":"FRESH","line1":"1 56407U 23061AK  26262.95838759 -.00000640  00000+0 -13748-4 0  9994","line2":"2 56407  43.0020 170.0665 0001342 265.1749  94.8950 15.27575759186588","mean_motion":15.27575759,"eccentricity":0.0001342,"inclination_deg":43.002,"raan_deg":170.0665,"arg_perigee_deg":265.1749,"mean_anomaly_deg":94.895,"bstar":-1.3748e-5,"rev_number":18658,"period_min":94.267010425897,"perigee_km":482.14102227042,"apogee_km":483.98256802703,"semimajor_km":6861.1987951487,"source":"CELESTRAK","updated_at":"2026-09-21T09:00:33.436077Z"}}